KB3GVC-13 Weather Reports


time (UTC)temp
C
wind
direction
speed
KPH
gust
KPH
rain 1hr
cm
rain 24hr
cm
rain mn
cm
humidity
%
barometer
mb
20260510164023 25 278 1.6 9.7 0.00 0.00 0.00 51 1014.0
20260510163518 25 245 1.6 3.2 0.00 0.00 0.00 50 1014.0
20260510163014 25 294 3.2 6.4 0.00 0.00 0.00 51 1014.1
20260510162510 25 217 3.2 4.8 0.00 0.00 0.00 52 1014.0
20260510162007 25 153 3.2 4.8 0.00 0.00 0.00 51 1013.9
20260510161502 25 288 3.2 6.4 0.00 0.00 0.00 54 1013.9
20260510161000 24 193 4.8 9.7 0.00 0.00 0.00 56 1014.4
20260510160457 25 224 3.2 4.8 0.00 0.00 0.00 54 1014.2
20260510155954 25 288 0.0 4.8 0.00 0.00 0.00 53 1014.2
20260510155452 25 287 6.4 6.4 0.00 0.00 0.00 53 1014.1
20260510154949 24 299 3.2 11.3 0.00 0.00 0.00 54 1014.2
20260510154445 23 278 6.4 11.3 0.00 0.00 0.00 54 1014.4
20260510153943 23 210 1.6 11.3 0.00 0.00 0.00 54 1014.3
20260510153440 25 21 3.2 4.8 0.00 0.00 0.00 55 1014.2
20260510152937 24 160 1.6 3.2 0.00 0.00 0.00 56 1014.1
20260510152435 23 288 0.0 6.4 0.00 0.00 0.00 59 1014.2
20260510151931 23 290 3.2 9.7 0.00 0.00 0.00 58 1014.4
20260510151428 23 289 6.4 11.3 0.00 0.00 0.00 56 1014.5
20260510150924 23 288 1.6 9.7 0.00 0.00 0.00 60 1014.4
20260510150420 23 274 3.2 3.2 0.00 0.00 0.00 59 1014.2
20260510145916 23 260 3.2 3.2 0.00 0.00 0.00 61 1014.0
20260510145413 22 257 4.8 6.4 0.00 0.00 0.00 59 1014.0
20260510144910 22 252 1.6 6.4 0.00 0.00 0.00 62 1014.1
20260510144407 22 288 6.4 9.7 0.00 0.00 0.00 60 1014.2
20260510143906 22 227 4.8 6.4 0.00 0.00 0.00 62 1014.3
20260510143402 22 206 3.2 4.8 0.00 0.00 0.00 63 1014.2
20260510142900 21 215 1.6 3.2 0.00 0.00 0.00 64 1014.2
20260510142356 21 251 1.6 4.8 0.00 0.00 0.00 66 1014.3
20260510141853 21 292 1.6 4.8 0.00 0.00 0.00 67 1014.4
20260510141351 20 285 3.2 6.4 0.00 0.00 0.00 70 1014.5
20260510140848 20 268 1.6 3.2 0.00 0.00 0.00 68 1014.6
20260510140344 20 257 3.2 4.8 0.00 0.00 0.00 67 1014.4
20260510135843 20 293 0.0 4.8 0.00 0.00 0.00 70 1014.4
20260510135339 20 141 1.6 1.6 0.00 0.00 0.00 69 1014.3
20260510134836 20 263 0.0 1.6 0.00 0.00 0.00 70 1014.3
20260510134333 20 308 1.6 3.2 0.00 0.00 0.00 72 1014.4
20260510133829 18 296 0.0 1.6 0.00 0.00 0.00 74 1014.5
20260510133326 18 286 1.6 1.6 0.00 0.00 0.00 76 1014.6
20260510132821 18 279 0.0 0.0 0.00 0.00 0.00 75 1014.4
20260510132319 19 294 1.6 1.6 0.00 0.00 0.00 73 1014.5
20260510131816 17 295 0.0 0.0 0.00 0.00 0.00 76 1014.4
20260510131314 17 278 0.0 1.6 0.00 0.00 0.00 79 1014.5
20260510130810 17 30 0.0 1.6 0.00 0.00 0.00 78 1014.5
20260510130307 17 52 0.0 1.6 0.00 0.00 0.00 78 1014.6
20260510125803 16 60 0.0 0.0 0.00 0.00 0.00 80 1014.4
20260510125259 16 59 0.0 0.0 0.00 0.00 0.00 81 1014.7
20260510124756 16 94 1.6 1.6 0.00 0.00 0.00 82 1014.6
20260510124253 15 103 0.0 1.6 0.00 0.00 0.00 83 1014.6
20260510123749 15 106 1.6 1.6 0.00 0.00 0.00 85 1014.7
20260510123245 15 107 1.6 1.6 0.00 0.00 0.00 85 1014.6
20260510122741 15 107 0.0 0.0 0.00 0.00 0.00 85 1014.5
20260510122238 15 107 0.0 1.6 0.00 0.00 0.00 88 1014.5
20260510121734 14 107 0.0 0.0 0.00 0.00 0.00 90 1014.5
20260510121232 13 107 0.0 1.6 0.00 0.00 0.00 90 1014.4
20260510120729 13 127 0.0 0.0 0.00 0.00 0.00 90 1014.2
20260510120226 12 127 1.6 3.2 0.00 0.00 0.00 94 1014.2
20260510115721 12 11 0.0 1.6 0.00 0.00 0.00 98 1014.0
20260510115220 12 10 0.0 1.6 0.00 0.00 0.00 99 1014.1
20260510114714 12 9 0.0 1.6 0.00 0.00 0.00 99 1013.8
20260510114212 11 9 0.0 1.6 0.00 0.00 0.00 99 1014.1
20260510113707 11 9 0.0 0.0 0.00 0.00 0.00 99 1013.9
20260510113204 11 9 0.0 3.2 0.00 0.00 0.00 99 1013.7
20260510112700 11 37 3.2 4.8 0.00 0.00 0.00 99 1013.9
20260510112158 11 325 6.4 6.4 0.00 0.00 0.00 99 1014.0
20260510111653 11 303 3.2 4.8 0.00 0.00 0.00 99 1013.9
20260510111151 11 274 0.0 0.0 0.00 0.00 0.00 99 1013.6
20260510110645 10 274 0.0 0.0 0.00 0.00 0.00 99 1013.3
20260510110143 10 274 0.0 0.0 0.00 0.00 0.00 99 1013.4
20260510105638 10 274 0.0 0.0 0.00 0.00 0.00 99 1013.4
20260510105138 10 274 0.0 0.0 0.00 0.00 0.00 99 1013.3
20260510104635 10 274 0.0 0.0 0.00 0.00 0.00 99 1013.5
20260510104132 10 274 0.0 0.0 0.00 0.00 0.00 99 1013.2
20260510103629 10 274 0.0 1.6 0.00 0.00 0.00 99 1013.2
20260510103125 9 274 0.0 0.0 0.00 0.00 0.00 99 1013.0
20260510102620 9 274 0.0 0.0 0.00 0.00 0.00 99 1012.8
20260510102116 9 274 0.0 0.0 0.00 0.00 0.00 99 1012.8
20260510101614 9 274 0.0 0.0 0.00 0.00 0.00 99 1012.8
20260510101112 8 274 0.0 0.0 0.00 0.00 0.00 99 1012.8
20260510100608 9 274 0.0 0.0 0.00 0.00 0.00 99 1012.9
20260510100106 9 274 0.0 0.0 0.00 0.00 0.00 99 1013.0
20260510095602 9 274 0.0 0.0 0.00 0.00 0.00 99 1012.9
20260510095102 9 274 0.0 0.0 0.00 0.00 0.00 99 1012.6
20260510094601 9 274 0.0 0.0 0.00 0.00 0.00 99 1012.5
20260510094057 9 274 0.0 0.0 0.00 0.00 0.00 99 1012.5
20260510093553 9 274 0.0 0.0 0.00 0.00 0.00 99 1012.6
20260510093050 10 274 0.0 1.6 0.00 0.00 0.00 99 1012.7
20260510092547 10 274 0.0 0.0 0.00 0.00 0.00 99 1012.4
20260510092046 10 274 0.0 0.0 0.00 0.00 0.00 99 1012.6
20260510091543 10 274 0.0 3.2 0.00 0.00 0.00 99 1012.9
20260510091039 10 273 0.0 1.6 0.00 0.00 0.00 99 1012.4
20260510090536 10 303 3.2 3.2 0.00 0.00 0.00 99 1012.8
20260510090032 10 315 1.6 3.2 0.00 0.00 0.00 99 1012.3
20260510085532 10 172 0.0 1.6 0.00 0.00 0.00 99 1012.4
20260510085029 10 302 6.4 6.4 0.00 0.00 0.00 99 1012.5
20260510084526 10 290 1.6 6.4 0.00 0.00 0.00 99 1012.8
20260510084022 8 298 3.2 6.4 0.00 0.00 0.00 99 1012.5
20260510083519 8 22 0.0 0.0 0.00 0.00 0.00 99 1012.1
20260510083015 8 22 0.0 0.0 0.00 0.00 0.00 99 1012.0
20260510082513 8 22 0.0 0.0 0.00 0.00 0.00 99 1012.1
20260510082012 8 22 0.0 0.0 0.00 0.00 0.00 99 1011.9
20260510081508 8 22 0.0 0.0 0.00 0.00 0.00 99 1011.8
20260510081004 8 22 0.0 0.0 0.00 0.00 0.00 99 1011.9
20260510080502 8 22 0.0 0.0 0.00 0.00 0.00 99 1011.9
20260510080000 8 22 0.0 0.0 0.00 0.00 0.00 99 1012.0
20260510075457 8 22 0.0 0.0 0.00 0.00 0.00 99 1012.0
20260510074954 8 22 0.0 0.0 0.00 0.00 0.00 99 1012.1
20260510074452 8 22 0.0 0.0 0.00 0.00 0.00 99 1011.8
20260510073947 9 22 0.0 0.0 0.00 0.00 0.00 99 1012.0
20260510073443 9 22 0.0 0.0 0.00 0.00 0.00 99 1011.7
20260510072940 8 22 0.0 0.0 0.00 0.00 0.00 99 1012.0
20260510072437 8 22 0.0 0.0 0.00 0.00 0.00 99 1011.7
20260510071932 8 36 0.0 0.0 0.00 0.00 0.00 99 1011.6
20260510071429 8 43 0.0 0.0 0.00 0.00 0.00 99 1011.4
20260510070927 8 43 0.0 0.0 0.00 0.00 0.00 99 1011.1
20260510070424 8 43 0.0 0.0 0.00 0.00 0.00 99 1011.4
20260510065919 8 43 0.0 0.0 0.00 0.00 0.00 99 1011.3
20260510065416 8 43 0.0 0.0 0.00 0.00 0.00 99 1011.3
20260510064912 8 43 0.0 0.0 0.00 0.00 0.00 99 1011.4
20260510064411 8 43 0.0 0.0 0.00 0.00 0.00 99 1011.3
20260510063907 9 43 0.0 0.0 0.00 0.00 0.00 99 1011.5
20260510063403 9 43 0.0 0.0 0.00 0.00 0.00 99 1011.3
20260510062901 9 43 0.0 0.0 0.00 0.00 0.00 99 1011.5
20260510062355 8 43 0.0 0.0 0.00 0.00 0.00 99 1011.5
20260510061851 9 43 0.0 0.0 0.00 0.00 0.00 99 1011.5
20260510061348 8 43 0.0 0.0 0.00 0.00 0.00 99 1011.4
20260510060844 8 43 0.0 0.0 0.00 0.00 0.00 99 1011.5
20260510060341 9 43 0.0 0.0 0.00 0.00 0.00 99 1011.5
20260510055838 8 43 0.0 0.0 0.00 0.00 0.00 99 1011.6
20260510055337 9 43 0.0 0.0 0.00 0.00 0.00 99 1011.6
20260510054836 9 43 0.0 0.0 0.00 0.00 0.00 99 1011.6
20260510054332 9 43 0.0 0.0 0.00 0.00 0.00 99 1011.7
20260510053827 9 43 0.0 0.0 0.00 0.00 0.00 99 1011.7
20260510053323 9 43 0.0 0.0 0.00 0.00 0.00 99 1011.8
20260510052820 9 43 0.0 0.0 0.00 0.00 0.00 99 1011.7
20260510052315 9 43 0.0 0.0 0.00 0.00 0.00 99 1011.5
20260510051811 9 43 0.0 0.0 0.00 0.00 0.00 99 1011.9
20260510051308 9 43 0.0 0.0 0.00 0.00 0.00 99 1011.9
20260510050806 9 43 0.0 0.0 0.00 0.00 0.00 99 1011.9
20260510050302 10 43 0.0 0.0 0.00 0.00 0.00 99 1011.9
20260510045759 10 43 0.0 0.0 0.00 0.00 0.00 99 1011.9
20260510045256 10 43 0.0 0.0 0.00 0.00 0.00 99 1012.0
20260510044753 10 43 0.0 0.0 0.00 0.00 0.00 99 1011.8
20260510044250 10 43 0.0 0.0 0.00 0.00 0.00 99 1012.1
20260510043746 10 43 0.0 0.0 0.00 0.00 0.00 99 1011.9
20260510043243 10 43 0.0 0.0 0.00 0.00 0.00 99 1011.9
20260510042740 10 43 0.0 0.0 0.00 0.00 0.00 99 1012.1
20260510042235 10 43 0.0 0.0 0.00 0.00 0.00 99 1012.0
20260510041732 10 43 0.0 0.0 0.00 0.00 0.00 99 1012.1
20260510041230 10 43 0.0 0.0 0.00 0.00 0.00 99 1012.1
20260510040727 10 43 0.0 0.0 0.00 0.00 0.00 99 1012.1
20260510040224 10 43 0.0 0.0 0.00 0.00 0.00 99 1011.9
20260510035719 10 43 0.0 0.0 0.00 0.00 0.00 99 1012.2
20260510035215 10 43 0.0 0.0 0.00 0.00 0.00 99 1012.0
20260510034711 10 43 0.0 0.0 0.00 0.00 0.00 99 1012.0
20260510034209 10 43 0.0 0.0 0.00 0.00 0.00 99 1012.0
20260510033705 10 43 0.0 0.0 0.00 0.00 0.00 99 1012.0
20260510033203 10 43 0.0 0.0 0.00 0.00 0.00 98 1011.8
20260510032659 10 43 0.0 0.0 0.00 0.00 0.00 98 1012.1
20260510032154 10 43 0.0 0.0 0.00 0.00 0.00 98 1012.0
20260510031649 10 43 0.0 0.0 0.00 0.00 0.00 98 1011.9
20260510031147 10 43 0.0 0.0 0.00 0.00 0.00 98 1011.7
20260510030646 10 43 0.0 0.0 0.00 0.00 0.00 98 1011.6
20260510030144 10 43 0.0 0.0 0.00 0.00 0.00 97 1011.8
20260510025641 10 43 0.0 0.0 0.00 0.00 0.00 97 1011.6
20260510025138 10 43 0.0 0.0 0.00 0.00 0.00 97 1011.6
20260510024635 11 43 0.0 0.0 0.00 0.00 0.00 97 1011.6
20260510024132 11 43 0.0 0.0 0.00 0.00 0.00 97 1011.6
20260510023627 11 43 0.0 0.0 0.00 0.00 0.00 96 1011.6
20260510023125 11 43 0.0 0.0 0.00 0.00 0.00 96 1011.5
20260510022625 11 43 0.0 0.0 0.00 0.00 0.00 96 1011.6
20260510022120 11 43 0.0 0.0 0.00 0.00 0.00 96 1011.5
20260510021616 11 43 0.0 0.0 0.00 0.00 0.00 96 1011.6
20260510021114 11 43 0.0 0.0 0.00 0.00 0.00 96 1011.6
20260510020613 11 43 0.0 0.0 0.00 0.00 0.00 96 1011.6
20260510020109 11 43 0.0 0.0 0.00 0.00 0.00 96 1011.5
20260510015605 11 43 0.0 0.0 0.00 0.00 0.00 95 1011.6
20260510015102 11 43 0.0 0.0 0.00 0.00 0.00 95 1011.5
20260510014558 11 43 0.0 0.0 0.00 0.00 0.00 94 1011.5
20260510014055 12 43 0.0 0.0 0.00 0.00 0.00 94 1011.5
20260510013549 12 43 0.0 0.0 0.00 0.00 0.00 94 1011.4
20260510013046 11 43 0.0 0.0 0.00 0.00 0.00 94 1011.5
20260510012545 11 43 0.0 0.0 0.00 0.00 0.00 93 1011.4
20260510012042 12 43 0.0 0.0 0.00 0.00 0.00 92 1011.0
20260510011542 12 43 0.0 0.0 0.00 0.00 0.00 92 1011.2
20260510011038 12 43 0.0 0.0 0.00 0.00 0.00 92 1011.2
20260510010534 12 43 0.0 0.0 0.00 0.00 0.00 91 1011.2
20260510010032 12 43 0.0 0.0 0.00 0.00 0.00 90 1011.2
20260510005527 12 43 0.0 0.0 0.00 0.00 0.00 90 1011.1
20260510005025 13 43 0.0 0.0 0.00 0.00 0.00 89 1011.1
20260510004522 13 43 0.0 0.0 0.00 0.00 0.00 88 1011.1
20260510004021 13 43 0.0 0.0 0.00 0.00 0.00 88 1011.0
20260510003517 13 43 0.0 0.0 0.00 0.00 0.00 87 1011.1
20260510003012 13 43 0.0 0.0 0.00 0.00 0.00 86 1011.0
20260510002508 13 43 0.0 0.0 0.00 0.00 0.00 85 1011.1
20260510002005 14 43 0.0 0.0 0.00 0.00 0.00 84 1011.0
20260510001503 14 43 0.0 0.0 0.00 0.00 0.00 83 1010.9
20260510001000 14 43 0.0 0.0 0.00 0.00 0.00 82 1011.0
20260510000456 15 43 0.0 0.0 0.00 0.00 0.00 82 1011.1
20260509235952 15 43 0.0 0.0 0.00 0.00 0.00 81 1011.1
20260509235449 15 43 0.0 0.0 0.00 0.00 0.00 80 1011.1
20260509234945 15 43 0.0 0.0 0.00 0.00 0.00 79 1011.0
20260509234442 15 41 0.0 1.6 0.00 0.00 0.00 79 1011.1
20260509233940 15 3 0.0 0.0 0.00 0.00 0.00 79 1011.2
20260509233438 15 3 0.0 1.6 0.00 0.00 0.00 78 1011.0
20260509232933 16 3 0.0 3.2 0.00 0.00 0.00 78 1010.9
20260509232431 16 52 0.0 1.6 0.00 0.00 0.00 77 1010.9
20260509231927 16 31 3.2 4.8 0.00 0.00 0.00 77 1010.8
20260509231424 16 16 1.6 4.8 0.00 0.00 0.00 76 1010.9
20260509230922 17 11 3.2 4.8 0.00 0.00 0.00 75 1010.8
20260509230418 17 22 0.0 3.2 0.00 0.00 0.00 74 1010.9
20260509225914 17 11 0.0 0.0 0.00 0.00 0.00 74 1010.8
20260509225411 17 347 1.6 4.8 0.00 0.00 0.00 73 1010.6
20260509224907 17 356 3.2 9.7 0.00 0.00 0.00 73 1010.7
20260509224403 17 42 0.0 1.6 0.00 0.00 0.00 73 1010.7
20260509223900 17 20 3.2 4.8 0.00 0.00 0.00 72 1010.8
20260509223357 17 97 1.6 3.2 0.00 0.00 0.00 73 1010.7
20260509222854 17 72 1.6 4.8 0.00 0.00 0.00 71 1010.8
20260509222354 17 11 1.6 1.6 0.00 0.00 0.00 72 1011.0
20260509221850 17 301 3.2 4.8 0.00 0.00 0.00 73 1011.1
20260509221348 17 26 0.0 6.4 0.00 0.00 0.00 73 1010.7
20260509220843 16 15 0.0 3.2 0.00 0.00 0.00 75 1010.8
20260509220339 16 25 0.0 3.2 0.00 0.00 0.00 75 1010.8
20260509215835 16 31 1.6 6.4 0.00 0.00 0.00 74 1010.9
20260509215331 16 5 1.6 1.6 0.00 0.00 0.00 75 1010.9
20260509214829 16 34 8.0 11.3 0.00 0.00 0.00 74 1011.0
20260509214326 16 16 3.2 4.8 0.00 0.00 0.00 74 1011.0
20260509213823 16 17 0.0 3.2 0.00 0.00 0.00 74 1010.8
20260509213318 16 18 0.0 1.6 0.00 0.00 0.00 74 1010.9
20260509212816 16 40 1.6 3.2 0.00 0.00 0.00 74 1010.7
20260509212313 16 40 3.2 4.8 0.00 0.00 0.00 74 1010.7
20260509211809 16 9 1.6 1.6 0.00 0.00 0.00 73 1010.7
20260509211305 17 13 0.0 1.6 0.00 0.00 0.00 73 1010.7
20260509210802 17 29 0.0 1.6 0.00 0.00 0.00 73 1010.9
20260509210300 17 73 0.0 1.6 0.00 0.00 0.00 72 1010.8
20260509205759 17 7 1.6 3.2 0.00 0.00 0.00 72 1010.6
20260509205254 17 27 4.8 4.8 0.00 0.00 0.00 71 1010.6
20260509204750 17 9 0.0 4.8 0.00 0.00 0.00 71 1010.8
20260509204246 17 6 3.2 4.8 0.00 0.00 0.00 69 1010.8
20260509203742 17 291 1.6 4.8 0.00 0.00 0.00 70 1010.8
20260509203241 17 9 3.2 4.8 0.00 0.00 0.00 70 1010.7
20260509202736 17 351 0.0 3.2 0.00 0.00 0.00 70 1010.7
20260509202232 17 22 3.2 4.8 0.00 0.00 0.00 70 1010.7
20260509201727 17 296 3.2 6.4 0.00 0.00 0.00 70 1010.7
20260509201224 17 307 3.2 6.4 0.00 0.00 0.00 69 1010.7
20260509200720 17 13 3.2 6.4 0.00 0.00 0.00 69 1010.9
20260509200215 17 34 4.8 9.7 0.00 0.00 0.00 69 1010.9
20260509195711 17 334 3.2 3.2 0.00 0.00 0.00 70 1010.8
20260509195207 17 20 3.2 4.8 0.00 0.00 0.00 70 1010.8
20260509194707 17 25 0.0 3.2 0.00 0.00 0.00 72 1010.9
20260509194204 17 19 3.2 9.7 0.00 0.00 0.00 72 1010.9
20260509193700 17 26 4.8 9.7 0.00 0.00 0.00 70 1010.9
20260509193155 18 280 9.7 12.9 0.00 0.00 0.00 69 1010.7
20260509192652 18 359 4.8 4.8 0.00 0.00 0.00 69 1010.9
20260509192147 18 328 3.2 9.7 0.00 0.00 0.00 70 1011.0
20260509191647 17 26 0.0 3.2 0.00 0.00 0.00 70 1011.3
20260509191144 18 284 4.8 4.8 0.00 0.00 0.00 68 1011.3
20260509190640 17 359 1.6 3.2 0.00 0.00 0.00 69 1011.2
20260509190138 17 0 1.6 6.4 0.00 0.00 0.00 70 1011.6
20260509185636 17 44 4.8 9.7 0.00 0.00 0.00 68 1011.4
20260509185131 17 331 3.2 4.8 0.00 0.00 0.00 68 1011.7
20260509184629 17 288 4.8 11.3 0.00 0.00 0.00 68 1011.6
20260509184126 17 25 0.0 9.7 0.00 0.00 0.00 70 1011.7
20260509183622 17 8 4.8 6.4 0.00 0.00 0.00 70 1011.6
20260509183117 17 291 4.8 9.7 0.00 0.00 0.00 70 1011.6
20260509182614 17 277 3.2 6.4 0.00 0.00 0.00 69 1011.9
20260509182111 17 317 3.2 6.4 0.00 0.00 0.00 69 1011.5
20260509181609 17 312 3.2 9.7 0.00 0.00 0.00 68 1012.0
20260509181106 17 313 1.6 9.7 0.00 0.00 0.00 69 1011.7
20260509180602 17 291 0.0 6.4 0.00 0.00 0.00 67 1011.9
20260509180059 17 292 3.2 9.7 0.00 0.00 0.00 66 1012.0
20260509175554 18 309 4.8 6.4 0.00 0.00 0.00 64 1011.8
20260509175052 18 266 6.4 12.9 0.00 0.00 0.00 62 1011.9
20260509174548 18 254 3.2 11.3 0.00 0.00 0.00 63 1011.9
20260509174044 18 239 8.0 12.9 0.00 0.00 0.00 64 1011.8
20260509173544 18 290 8.0 14.5 0.00 0.00 0.00 65 1011.9
20260509173040 18 296 8.0 11.3 0.00 0.00 0.00 64 1012.0
20260509172538 18 267 4.8 6.4 0.00 0.00 0.00 64 1011.8
20260509172033 18 303 6.4 11.3 0.00 0.00 0.00 64 1011.8
20260509171529 19 303 3.2 11.3 0.00 0.00 0.00 63 1011.8
20260509171026 19 249 4.8 9.7 0.00 0.00 0.00 63 1011.7
20260509170521 19 276 4.8 6.4 0.00 0.00 0.00 62 1011.7
20260509170017 19 267 1.6 6.4 0.00 0.00 0.00 63 1012.0
20260509165516 18 275 1.6 9.7 0.00 0.00 0.00 64 1011.9
20260509165012 18 302 8.0 12.9 0.00 0.00 0.00 65 1012.0
20260509164508 19 292 9.7 11.3 0.00 0.00 0.00 65 1012.2